When you browse on this site, cookies collect data to enhance your experience and personalize the content and advertising you see.
Visit our Privacy Policy to learn more. By continuing to use the site, you agree to this use of cookies and data.
  • In Netherlands
  • List of Countries
  • For 7 days
  • Water Temperature
  • Satellite Maps
  • Weather Map
  • Weather Widgets
  • user-avatar
    Login

    Hourly Weather Matlock

    Today, 17 June, Monday

    Time Temperature Precipitation Wind Pressure Humidity
    00:00 +10°C° 0 mm 6 mps 744 mmHg 92%
    01:00 +10°C° 0 mm 6 mps 744 mmHg 93%
    02:00 +9°C° 0 mm 6 mps 744 mmHg 94%
    03:00 +9°C° 0 mm 6 mps 744 mmHg 94%
    04:00 +9°C° 0 mm 6 mps 744 mmHg 93%
    05:00 +10°C° 0 mm 6 mps 744 mmHg 91%
    06:00 +10°C° 0 mm 6 mps 744 mmHg 90%
    07:00 +11°C° 0 mm 7 mps 744 mmHg 87%
    08:00 +12°C° 0 mm 7 mps 744 mmHg 85%
    09:00 +14°C° 0 mm 7 mps 745 mmHg 83%
    10:00 +15°C° 0.2 mm 7 mps 744 mmHg 82%
    11:00 +16°C° 0.2 mm 7 mps 744 mmHg 81%
    12:00 +16°C° 0.2 mm 8 mps 744 mmHg 81%
    13:00 +16°C° 0.4 mm 7 mps 744 mmHg 81%
    14:00 +16°C° 0.4 mm 7 mps 744 mmHg 81%
    15:00 +16°C° 0.4 mm 7 mps 744 mmHg 81%
    16:00 +16°C° 0.2 mm 7 mps 744 mmHg 82%
    17:00 +16°C° 0.2 mm 6 mps 744 mmHg 83%
    18:00 +15°C° 0.2 mm 6 mps 744 mmHg 83%
    19:00 +14°C° 0 mm 5 mps 744 mmHg 86%
    20:00 +13°C° 0 mm 4 mps 744 mmHg 90%
    21:00 +12°C° 0 mm 3 mps 744 mmHg 93%
    22:00 +11°C° 0 mm 3 mps 744 mmHg 93%
    23:00 +11°C° 0 mm 3 mps 744 mmHg 94%

    Tomorrow, 18 June, Tuesday

    Time Temperature Precipitation Wind Pressure Humidity
    00:00 +10°C° 0 mm 3 mps 744 mmHg 94%
    01:00 +10°C° 0 mm 3 mps 744 mmHg 94%
    02:00 +9°C° 0 mm 3 mps 744 mmHg 93%
    03:00 +9°C° 0 mm 3 mps 744 mmHg 93%
    04:00 +10°C° 0 mm 3 mps 744 mmHg 92%
    05:00 +11°C° 0 mm 3 mps 744 mmHg 90%
    06:00 +11°C° 0 mm 3 mps 744 mmHg 89%
    07:00 +13°C° 0 mm 3 mps 744 mmHg 86%
    08:00 +14°C° 0 mm 3 mps 744 mmHg 83%
    09:00 +15°C° 0 mm 4 mps 744 mmHg 81%
    10:00 +17°C° 0.1 mm 4 mps 744 mmHg 78%
    11:00 +17°C° 0.1 mm 3 mps 744 mmHg 76%
    12:00 +18°C° 0.1 mm 3 mps 744 mmHg 73%
    13:00 +18°C° 0.1 mm 3 mps 743 mmHg 73%
    14:00 +19°C° 0.1 mm 3 mps 743 mmHg 73%
    15:00 +19°C° 0.1 mm 3 mps 743 mmHg 73%
    16:00 +18°C° 0.5 mm 2 mps 742 mmHg 79%
    17:00 +16°C° 0.5 mm 2 mps 742 mmHg 86%
    18:00 +15°C° 0.5 mm 1 mps 742 mmHg 92%
    19:00 +15°C° 0.5 mm 1 mps 742 mmHg 92%
    20:00 +14°C° 0.5 mm 1 mps 742 mmHg 92%
    21:00 +14°C° 0.5 mm 1 mps 742 mmHg 92%
    22:00 +14°C° 0.3 mm 1 mps 742 mmHg 92%
    23:00 +13°C° 0.3 mm 1 mps 741 mmHg 93%

    Day after tomorrow, 19 June, Wednesday

    Time Temperature Precipitation Wind Pressure Humidity
    00:00 +13°C° 0.3 mm 1 mps 741 mmHg 93%
    01:00 +13°C° 0 mm 1 mps 740 mmHg 94%
    02:00 +13°C° 0 mm 2 mps 740 mmHg 94%
    03:00 +13°C° 0 mm 2 mps 740 mmHg 95%
    04:00 +13°C° 0.1 mm 2 mps 739 mmHg 95%
    05:00 +12°C° 0.1 mm 3 mps 739 mmHg 95%
    06:00 +12°C° 0.1 mm 3 mps 738 mmHg 95%
    07:00 +12°C° 0.8 mm 3 mps 738 mmHg 95%
    08:00 +12°C° 0.8 mm 3 mps 738 mmHg 95%
    09:00 +12°C° 0.8 mm 3 mps 738 mmHg 95%
    10:00 +13°C° 1.4 mm 3 mps 738 mmHg 95%
    11:00 +14°C° 1.4 mm 2 mps 738 mmHg 95%
    12:00 +14°C° 1.4 mm 2 mps 737 mmHg 95%
    13:00 +13°C° 0.3 mm 3 mps 737 mmHg 94%
    14:00 +13°C° 0.3 mm 3 mps 737 mmHg 93%
    15:00 +13°C° 0.3 mm 4 mps 738 mmHg 93%
    16:00 +12°C° 0.3 mm 3 mps 738 mmHg 93%
    17:00 +12°C° 0.3 mm 3 mps 738 mmHg 94%
    18:00 +11°C° 0.3 mm 3 mps 738 mmHg 94%
    19:00 +11°C° 0 mm 3 mps 739 mmHg 93%
    20:00 +11°C° 0 mm 3 mps 739 mmHg 93%
    21:00 +10°C° 0 mm 3 mps 740 mmHg 93%
    22:00 +10°C° 0 mm 3 mps 740 mmHg 93%
    23:00 +9°C° 0 mm 3 mps 740 mmHg 93%

    20 June, Thursday

    Time Temperature Precipitation Wind Pressure Humidity
    00:00 +9°C° 0 mm 3 mps 740 mmHg 94%
    01:00 +8°C° 0 mm 3 mps 740 mmHg 94%
    02:00 +8°C° 0 mm 3 mps 740 mmHg 94%
    03:00 +8°C° 0 mm 2 mps 740 mmHg 95%
    04:00 +8°C° 0 mm 2 mps 740 mmHg 94%
    05:00 +9°C° 0 mm 3 mps 740 mmHg 93%
    06:00 +10°C° 0 mm 3 mps 741 mmHg 92%
    07:00 +11°C° 0 mm 3 mps 741 mmHg 87%
    08:00 +12°C° 0 mm 4 mps 741 mmHg 82%
    09:00 +14°C° 0 mm 5 mps 741 mmHg 77%
    10:00 +14°C° 0.3 mm 5 mps 741 mmHg 77%
    11:00 +14°C° 0.3 mm 5 mps 741 mmHg 77%
    12:00 +14°C° 0.3 mm 5 mps 741 mmHg 78%
    13:00 +14°C° 0.2 mm 6 mps 741 mmHg 76%
    14:00 +15°C° 0.2 mm 6 mps 741 mmHg 73%
    15:00 +15°C° 0.2 mm 6 mps 741 mmHg 71%
    16:00 +15°C° 0.2 mm 6 mps 741 mmHg 74%
    17:00 +14°C° 0.2 mm 5 mps 741 mmHg 76%
    18:00 +14°C° 0.2 mm 5 mps 741 mmHg 79%
    19:00 +13°C° 0.1 mm 5 mps 741 mmHg 82%
    20:00 +11°C° 0.1 mm 4 mps 742 mmHg 85%
    21:00 +10°C° 0.1 mm 4 mps 742 mmHg 88%
    22:00 +8°C° 0 mm 4 mps 742 mmHg 89%
    23:00 +8°C° 0 mm 4 mps 742 mmHg 90%

    21 June, Friday

    Time Temperature Precipitation Wind Pressure Humidity
    00:00 +7°C° 0 mm 4 mps 742 mmHg 91%
    01:00 +7°C° 0 mm 4 mps 742 mmHg 92%
    02:00 +7°C° 0 mm 3 mps 742 mmHg 93%
    03:00 +7°C° 0 mm 3 mps 742 mmHg 95%
    04:00 +8°C° 0 mm 3 mps 743 mmHg 94%
    05:00 +8°C° 0 mm 3 mps 743 mmHg 93%
    06:00 +8°C° 0 mm 4 mps 743 mmHg 92%
    07:00 +11°C° 0 mm 4 mps 744 mmHg 86%
    08:00 +12°C° 0 mm 4 mps 744 mmHg 81%
    09:00 +13°C° 0 mm 4 mps 744 mmHg 75%
    10:00 +14°C° 0.1 mm 4 mps 744 mmHg 73%
    11:00 +14°C° 0.1 mm 4 mps 744 mmHg 71%
    12:00 +15°C° 0.1 mm 4 mps 744 mmHg 68%
    13:00 +15°C° 0.1 mm 4 mps 745 mmHg 67%
    14:00 +15°C° 0.1 mm 4 mps 745 mmHg 66%
    15:00 +15°C° 0.1 mm 4 mps 745 mmHg 65%
    16:00 +15°C° 0 mm 4 mps 745 mmHg 66%
    17:00 +15°C° 0 mm 4 mps 745 mmHg 68%
    18:00 +14°C° 0 mm 3 mps 745 mmHg 69%
    19:00 +12°C° 0 mm 3 mps 746 mmHg 72%
    20:00 +12°C° 0 mm 2 mps 746 mmHg 74%
    21:00 +10°C° 0 mm 1 mps 746 mmHg 77%
    22:00 +9°C° 0 mm 1 mps 747 mmHg 78%
    23:00 +9°C° 0 mm 1 mps 747 mmHg 79%

    22 June, Saturday

    Time Temperature Precipitation Wind Pressure Humidity
    00:00 +8°C° 0 mm 1 mps 747 mmHg 81%
    01:00 +8°C° 0 mm 1 mps 747 mmHg 80%
    02:00 +8°C° 0 mm 1 mps 747 mmHg 80%
    03:00 +7°C° 0 mm 1 mps 747 mmHg 80%
    04:00 +9°C° 0 mm 1 mps 747 mmHg 79%
    05:00 +10°C° 0 mm 1 mps 747 mmHg 78%
    06:00 +11°C° 0 mm 1 mps 748 mmHg 76%
    07:00 +12°C° 0 mm 1 mps 748 mmHg 73%
    08:00 +13°C° 0 mm 2 mps 748 mmHg 70%
    09:00 +15°C° 0 mm 2 mps 748 mmHg 67%
    10:00 +15°C° 0 mm 2 mps 747 mmHg 65%
    11:00 +16°C° 0 mm 2 mps 747 mmHg 63%
    12:00 +17°C° 0 mm 2 mps 747 mmHg 61%
    13:00 +17°C° 0.1 mm 3 mps 747 mmHg 62%
    14:00 +17°C° 0.1 mm 3 mps 747 mmHg 64%
    15:00 +18°C° 0.1 mm 3 mps 747 mmHg 65%
    16:00 +17°C° 0.2 mm 4 mps 746 mmHg 71%
    17:00 +15°C° 0.2 mm 4 mps 746 mmHg 77%
    18:00 +14°C° 0.2 mm 4 mps 746 mmHg 83%
    19:00 +13°C° 0 mm 4 mps 746 mmHg 85%
    20:00 +12°C° 0 mm 4 mps 747 mmHg 88%
    21:00 +10°C° 0 mm 4 mps 747 mmHg 90%
    22:00 +10°C° 0 mm 4 mps 747 mmHg 91%
    23:00 +10°C° 0 mm 4 mps 747 mmHg 91%
    Show more